EW3173 Weather Reports


Display with metric or nautical units.
time (UTC)temp
F
wind
direction
speed
MPH
gust
MPH
rain 1hr
in
rain 24hr
in
rain mn
in
humidity
%
barometer
mb
20240525111305 46 292 0.0 2.0 0.00 0.00 0.00 64 1018.9
20240525110805 46 292 0.0 2.0 0.00 0.00 0.00 64 1018.9
20240525110305 46 292 0.0 2.0 0.00 0.00 0.00 63 1018.9
20240525104805 47 292 0.0 0.0 0.00 0.00 0.00 61 1019.0
20240525103805 47 292 0.0 0.0 0.00 0.00 0.00 61 1018.9
20240525103305 47 292 0.0 1.0 0.00 0.00 0.00 61 1019.0
20240525101805 48 292 1.0 2.0 0.00 0.00 0.00 59 1019.2
20240525101305 48 292 0.0 1.0 0.00 0.00 0.00 59 1019.1
20240525100304 49 292 0.0 0.0 0.00 0.00 0.00 58 1019.0
20240525094805 49 292 0.0 1.0 0.00 0.00 0.00 58 1019.0
20240525093805 49 292 0.0 0.0 0.00 0.00 0.00 57 1019.1
20240525093305 50 292 0.0 0.0 0.00 0.00 0.00 56 1019.2
20240525090805 51 292 1.0 1.0 0.00 0.00 0.00 55 1019.4
20240525090305 51 292 0.0 1.0 0.00 0.00 0.00 55 1019.4
20240525084804 52 292 0.0 1.0 0.00 0.00 0.00 54 1019.4
20240525084305 52 292 0.0 1.0 0.00 0.00 0.00 54 1019.5
20240525083805 52 292 0.0 1.0 0.00 0.00 0.00 54 1019.6
20240525083305 52 292 0.0 1.0 0.00 0.00 0.00 53 1019.6
20240525081805 53 292 0.0 0.0 0.00 0.00 0.00 51 1019.7
20240525081305 53 292 0.0 0.0 0.00 0.00 0.00 51 1019.7
20240525080804 53 292 0.0 0.0 0.00 0.00 0.00 51 1019.8
20240525074804 54 292 0.0 0.0 0.00 0.00 0.00 50 1020.3
20240525074305 54 292 0.0 1.0 0.00 0.00 0.00 49 1020.3
20240525073805 55 292 0.0 1.0 0.00 0.00 0.00 49 1020.4
20240525071804 55 292 1.0 2.0 0.00 0.00 0.00 47 1020.8
20240525071305 55 292 0.0 1.0 0.00 0.00 0.00 46 1021.0
20240525070805 55 292 0.0 1.0 0.00 0.00 0.00 46 1021.0
20240525064805 56 292 0.0 1.0 0.00 0.00 0.00 45 1021.4
20240525063804 56 292 0.0 1.0 0.00 0.00 0.00 44 1021.6
20240525063305 56 292 0.0 0.0 0.00 0.00 0.00 44 1021.6
20240525061805 57 292 0.0 1.0 0.00 0.00 0.00 43 1021.8
20240525061304 57 292 0.0 1.0 0.00 0.00 0.00 43 1021.9
20240525060820 57 292 0.0 1.0 0.00 0.00 0.00 43 1022.0
20240525054806 58 292 0.0 1.0 0.00 0.00 0.00 43 1022.4
20240525054305 58 292 0.0 1.0 0.00 0.00 0.00 43 1022.4
20240525053805 58 292 0.0 1.0 0.00 0.00 0.00 42 1022.3
20240525053304 58 292 0.0 0.0 0.00 0.00 0.00 41 1022.4
20240525051805 59 292 0.0 1.0 0.00 0.00 0.00 40 1022.6
20240525051304 59 292 1.0 1.0 0.00 0.00 0.00 41 1022.7
20240525050304 60 292 0.0 0.0 0.00 0.00 0.00 39 1022.9
20240525044306 61 292 0.0 1.0 0.00 0.00 0.00 36 1023.1
20240525043805 61 292 0.0 1.0 0.00 0.00 0.00 36 1023.1
20240525043305 61 292 0.0 0.0 0.00 0.00 0.00 35 1023.0
20240525041804 62 292 0.0 1.0 0.00 0.00 0.00 34 1023.3
20240525041305 62 292 0.0 1.0 0.00 0.00 0.00 35 1023.3
20240525034805 63 292 1.0 2.0 0.00 0.00 0.00 31 1023.0
20240525034306 63 291 0.0 3.0 0.00 0.00 0.00 30 1023.1
20240525033305 64 9 1.0 3.0 0.00 0.00 0.00 30 1022.8
20240525031305 64 332 2.0 8.0 0.00 0.00 0.00 29 1022.5
20240525030804 64 25 3.0 9.0 0.00 0.00 0.00 28 1022.5
20240525030306 65 26 4.0 9.0 0.00 0.00 0.00 28 1022.4
20240525024805 65 350 3.0 7.0 0.00 0.00 0.00 27 1022.5
20240525024305 66 325 2.0 7.0 0.00 0.00 0.00 27 1022.5
20240525023805 66 290 1.0 6.0 0.00 0.00 0.00 27 1022.5
20240525023306 66 280 2.0 6.0 0.00 0.00 0.00 26 1022.5
20240525021804 67 280 2.0 7.0 0.00 0.00 0.00 25 1022.5
20240525021304 67 311 3.0 8.0 0.00 0.00 0.00 24 1022.5
20240525020805 67 278 2.0 8.0 0.00 0.00 0.00 24 1022.4
20240525020305 67 213 1.0 5.0 0.00 0.00 0.00 25 1022.4
20240525014805 68 317 1.0 3.0 0.00 0.00 0.00 25 1022.1
20240525014306 68 16 1.0 5.0 0.00 0.00 0.00 25 1022.0
20240525013805 68 5 2.0 5.0 0.00 0.00 0.00 24 1021.9
20240525013305 69 293 1.0 2.0 0.00 0.00 0.00 24 1021.9
20240525011805 69 163 1.0 5.0 0.00 0.00 0.00 30 1021.9
20240525010805 69 151 3.0 8.0 0.00 0.00 0.00 28 1021.8
20240525010305 69 155 1.0 8.0 0.00 0.00 0.00 29 1021.8
20240525004805 70 165 2.0 5.0 0.00 0.00 0.00 29 1021.5
20240525003305 71 162 3.0 6.0 0.00 0.00 0.00 29 1021.5
20240525001806 70 146 2.0 6.0 0.00 0.00 0.00 28 1021.5
20240525001304 71 155 2.0 6.0 0.00 0.00 0.00 29 1021.5
20240524234804 71 267 1.0 2.0 0.00 0.00 0.00 22 1021.9
20240524234307 71 278 0.0 2.0 0.00 0.00 0.00 25 1022.0
20240524233304 72 278 1.0 3.0 0.00 0.00 0.00 24 1021.9
20240524231805 72 171 1.0 3.0 0.00 0.00 0.00 25 1021.9
20240524231305 71 175 1.0 3.0 0.00 0.00 0.00 23 1021.9
20240524230805 71 166 2.0 5.0 0.00 0.00 0.00 22 1021.8
20240524230305 71 165 2.0 5.0 0.00 0.00 0.00 24 1021.8
20240524224804 71 175 1.0 5.0 0.00 0.00 0.00 26 1021.9
20240524223805 71 164 2.0 3.0 0.00 0.00 0.00 26 1022.0
20240524223305 71 162 1.0 5.0 0.00 0.00 0.00 25 1022.0
20240524221304 71 43 1.0 5.0 0.00 0.00 0.00 23 1022.2
20240524220805 72 159 3.0 5.0 0.00 0.00 0.00 22 1022.3
20240524220305 72 148 2.0 5.0 0.00 0.00 0.00 24 1022.2
20240524214804 71 165 2.0 6.0 0.00 0.00 0.00 23 1022.4
20240524214306 71 165 1.0 6.0 0.00 0.00 0.00 24 1022.4
20240524213805 72 165 2.0 7.0 0.00 0.00 0.00 24 1022.5
20240524213305 71 163 1.0 7.0 0.00 0.00 0.00 25 1022.6
20240524211805 71 149 2.0 6.0 0.00 0.00 0.00 23 1022.7
20240524211304 72 157 1.0 3.0 0.00 0.00 0.00 23 1022.7
20240524210805 72 16 1.0 3.0 0.00 0.00 0.00 28 1022.8
20240524210305 72 40 1.0 3.0 0.00 0.00 0.00 32 1022.9
20240524204804 71 134 1.0 5.0 0.00 0.00 0.00 28 1023.2
20240524203805 70 173 1.0 9.0 0.00 0.00 0.00 24 1023.3
20240524203305 71 157 3.0 9.0 0.00 0.00 0.00 23 1023.4
20240524201805 70 161 2.0 5.0 0.00 0.00 0.00 25 1023.4
20240524201305 71 107 1.0 3.0 0.00 0.00 0.00 25 1023.5
20240524200306 71 167 2.0 3.0 0.00 0.00 0.00 22 1023.7
20240524194805 68 167 2.0 6.0 0.00 0.00 0.00 26 1023.8
20240524194306 69 165 3.0 6.0 0.00 0.00 0.00 22 1023.7
20240524193805 68 165 3.0 5.0 0.00 0.00 0.00 26 1023.8
20240524193304 67 186 1.0 3.0 0.00 0.00 0.00 24 1023.9
20240524191804 67 99 1.0 6.0 0.00 0.00 0.00 26 1024.0
20240524191305 66 38 3.0 6.0 0.00 0.00 0.00 28 1024.1
20240524190305 68 44 1.0 3.0 0.00 0.00 0.00 27 1024.0
20240524184805 66 97 2.0 5.0 0.00 0.00 0.00 26 1024.2
20240524184304 66 117 1.0 7.0 0.00 0.00 0.00 27 1024.2
20240524183804 65 167 1.0 7.0 0.00 0.00 0.00 24 1024.3
20240524183304 67 33 2.0 5.0 0.00 0.00 0.00 29 1024.3
20240524181805 66 355 2.0 5.0 0.00 0.00 0.00 29 1024.5
20240524181304 66 67 1.0 5.0 0.00 0.00 0.00 25 1024.6
20240524180804 65 157 3.0 5.0 0.00 0.00 0.00 28 1024.6
20240524180306 66 106 2.0 3.0 0.00 0.00 0.00 28 1024.7
20240524174804 64 175 1.0 3.0 0.00 0.00 0.00 27 1024.8
20240524173805 63 158 1.0 5.0 0.00 0.00 0.00 30 1024.9
20240524173304 63 175 1.0 5.0 0.00 0.00 0.00 29 1024.8
20240524171804 63 178 1.0 3.0 0.00 0.00 0.00 29 1025.0
20240524171304 62 291 1.0 5.0 0.00 0.00 0.00 32 1025.2
20240524170804 61 175 2.0 6.0 0.00 0.00 0.00 30 1025.0
20240524170306 60 185 1.0 6.0 0.00 0.00 0.00 30 1025.2
20240524164804 60 148 2.0 6.0 0.00 0.00 0.00 32 1025.2
20240524164305 59 150 3.0 6.0 0.00 0.00 0.00 33 1025.3
20240524163804 59 154 3.0 6.0 0.00 0.00 0.00 32 1025.4
20240524163305 58 160 2.0 6.0 0.00 0.00 0.00 33 1025.4
20240524161304 57 166 3.0 6.0 0.00 0.00 0.00 34 1025.4
20240524160805 57 167 2.0 5.0 0.00 0.00 0.00 34 1025.5
20240524160306 57 150 2.0 5.0 0.00 0.00 0.00 35 1025.5
20240524154805 56 159 3.0 8.0 0.00 0.00 0.00 32 1025.6
20240524153804 55 163 4.0 7.0 0.00 0.00 0.00 33 1025.5
20240524153305 55 119 2.0 5.0 0.00 0.00 0.00 33 1025.5
20240524151805 54 62 2.0 5.0 0.00 0.00 0.00 35 1025.6
20240524150805 53 162 3.0 6.0 0.00 0.00 0.00 34 1025.7
20240524150305 53 163 2.0 6.0 0.00 0.00 0.00 35 1025.6
20240524144304 51 151 2.0 6.0 0.00 0.00 0.00 38 1025.6
20240524143804 51 148 3.0 6.0 0.00 0.00 0.00 37 1025.6
20240524143304 51 161 3.0 9.0 0.00 0.00 0.00 37 1025.5
20240524141804 50 161 3.0 7.0 0.00 0.00 0.00 38 1025.4
20240524141305 49 158 3.0 7.0 0.00 0.00 0.00 39 1025.4
20240524140305 49 156 3.0 6.0 0.00 0.00 0.00 40 1025.3
20240524134804 48 159 3.0 7.0 0.00 0.00 0.00 41 1025.4
20240524134305 48 160 2.0 7.0 0.00 0.00 0.00 42 1025.2
20240524133305 47 161 3.0 7.0 0.00 0.00 0.00 43 1025.3
20240524131805 46 158 2.0 5.0 0.00 0.00 0.00 44 1025.2
20240524131305 45 166 2.0 5.0 0.00 0.00 0.00 44 1025.2
20240524130306 44 169 3.0 5.0 0.00 0.00 0.00 45 1025.3
20240524124805 43 160 1.0 5.0 0.00 0.00 0.00 48 1025.3
20240524124305 42 161 3.0 5.0 0.00 0.00 0.00 49 1025.3
20240524123304 41 177 1.0 3.0 0.00 0.00 0.00 51 1025.1
20240524121304 41 287 0.0 1.0 0.00 0.00 0.00 50 1024.9
20240524120805 41 287 0.0 2.0 0.00 0.00 0.00 50 1024.9
20240524114805 42 287 1.0 1.0 0.00 0.00 0.00 49 1024.8
20240524114305 42 287 0.0 1.0 0.00 0.00 0.00 48 1024.7
20240524113804 42 287 1.0 2.0 0.00 0.00 0.00 48 1024.7
20240524113304 42 287 1.0 2.0 0.00 0.00 0.00 48 1024.6
20240524111804 43 287 1.0 2.0 0.00 0.00 0.00 46 1024.6